#timestamp,LO_Frequency,Hit,StdDev 
1632362415.3,286047002.5,N
1632362435.1,286047000.8,N
1632362455.8,286046998.3,N
1632362475.7,286046999.1,N
1632362495.5,286046996.9,N
1632362515.4,286046997.2,N
1632362535.2,286046996.5,N
1632362555.0,286047001.2,N
1632362555.9,286047001.2,N
1632362575.8,286046998.2,N
1632362595.6,286047000.8,N
1632362615.4,286046999.9,N
1632362635.3,286047001.5,N
1632362655.1,286047002.5,N
1632362675.9,286047001.8,N
1632362695.7,286047002.7,N
1632362715.5,286047000.3,N
1632362735.4,286047000.5,N
1632362755.2,286047000.9,N
1632362775.0,286047000.1,N
1632362775.9,286047000.1,N
1632362795.8,286047000.1,N
1632362815.6,286047000.2,N
1632362835.5,286046999.9,N
1632362855.3,286046999.7,N
1632362875.2,286047002.3,N
1632362895.0,286047001.2,N
1632362895.9,286047001.2,N
1632362915.8,286046998.5,N
1632362935.6,286047000.9,N
1632362955.4,286046998.7,N
1632362975.3,286046996.6,N
1632362995.1,286046996.7,N
1632363015.9,286046994.9,N
1632363035.7,286046995.8,N
1632363055.5,286046995.6,N
1632363075.4,286046997.4,N
1632363095.2,286046996.6,N
1632363115.0,286046999.1,N
1632363115.9,286046999.1,N
1632363135.8,286046999.5,N
1632363155.6,286047001.2,N
1632363175.5,286047000.8,N
1632363195.3,286046999.7,N
1632363215.1,286047000.2,N
1632363235.9,286047000.8,N
1632363255.7,286047001.1,N
1632363275.6,286047002.3,N
1632363295.4,286046999.8,N
1632363315.2,286047000.1,N
1632363335.1,286047002.6,N
1632363336.0,286047002.6,N
1632363355.8,286047004.3,N
1632363375.6,286047001.8,N
1632363395.5,286047003.8,N
1632363415.3,286047002.2,N
1632363435.2,286047002.4,N
1632363455.9,286047001.6,N
1632363475.7,286047001.7,N
1632363495.6,286047001.3,N
1632363515.4,286047001.7,N
1632363535.2,286047000.3,N
1632363555.1,286047000.4,N
1632363556.0,286047000.4,N
1632363575.8,286046998.5,N
1632363595.7,286046998.6,N
1632363615.5,286046998.9,N
1632363635.3,286046999.4,N
1632363655.2,286046999.3,N
1632363675.0,286046999.4,N
1632363675.9,286046999.4,N
1632363695.8,286047001.0,N
1632363715.6,286046999.9,N
1632363735.4,286047000.0,N
1632363755.3,286047001.0,N
1632363775.1,286047000.5,N
1632363795.8,286047000.3,N
1632363815.7,286047002.3,N
1632363835.5,286047002.1,N
1632363855.4,286047001.0,N
1632363875.2,286046999.7,N
1632363895.0,286047000.2,N
1632363895.9,286047000.2,N
1632363915.8,286047000.3,N
1632363935.6,286046999.9,N
1632363955.5,286047002.0,N
1632363975.3,286047002.5,N
1632363995.1,286046999.8,N
1632364015.9,286047000.6,N
1632364035.7,286046998.1,N
1632364055.5,286047001.1,N
1632364075.4,286046999.1,N
1632364095.2,286046998.3,N
1632364115.1,286046996.9,N
1632364116.0,286046996.9,N
1632364135.8,286046999.2,N
1632364155.6,286046998.3,N
1632364175.5,286047000.7,N
1632364195.3,286047001.1,N
1632364215.1,286047001.1,N
1632364235.9,286047000.7,N
1632364255.7,286046998.7,N
1632364275.6,286046999.2,N
1632364295.4,286046996.5,N
1632364315.2,286046997.6,N
1632364335.1,286046997.0,N
1632364336.0,286046997.0,N
1632364355.8,286046997.4,N
1632364375.7,286046997.7,N
1632364395.5,286046997.0,N
1632364415.3,286046998.7,N
1632364435.2,286046999.6,N
1632364455.0,286046998.2,N
1632364455.9,286046998.2,N
1632364475.7,286046998.2,N
1632364495.6,286047000.8,N
1632364515.4,286046998.6,N
1632364535.3,286047000.8,N
1632364555.1,286046999.8,N
1632364556.0,286046999.8,N
1632364575.8,286046998.5,N
1632364595.7,286047001.2,N
1632364615.5,286047000.8,N
1632364635.4,286047000.5,N
1632364655.2,286047001.2,N
1632364675.0,286046998.2,N
1632364675.9,286046998.2,N
1632364695.8,286046998.1,N
1632364715.6,286046998.2,N
1632364735.4,286046998.5,N
1632364755.3,286046998.4,N
1632364775.1,286047001.2,N
1632364795.9,286046998.3,N
1632364815.7,286046998.2,N
1632364835.5,286046998.6,N
1632364855.4,286046998.4,N
1632364875.2,286046998.2,N
1632364895.1,286046998.2,N
1632364896.0,286046998.2,N
1632364915.8,286047000.7,N
1632364935.6,286047002.8,N
1632364955.5,286047001.6,N
1632364975.3,286046999.7,N
1632364995.1,286047002.7,N
1632365015.9,286046999.9,N
1632365035.7,286047002.0,N
1632365055.6,286047002.6,N
1632365075.4,286046999.7,N
1632365095.2,286047002.4,N
1632365115.1,286047001.8,N
1632365116.0,286047001.8,N
1632365135.8,286047002.1,N
1632365155.7,286047002.4,N
1632365175.5,286047002.4,N
1632365195.3,286047000.3,N
1632365215.2,286046998.2,N
1632365235.0,286046998.3,N
1632365235.9,286046998.3,N
1632365255.8,286046998.5,N
1632365275.6,286047001.2,N
1632365295.4,286047000.2,N
1632365315.3,286047002.4,N
1632365335.1,286047002.8,N
1632365355.8,286047000.0,N
1632365375.7,286047001.0,N
1632365395.5,286047000.2,N
1632365415.4,286047002.8,N
1632365435.2,286047002.2,N
1632365455.0,286047002.7,N
1632365455.9,286047002.7,N
1632365475.8,286047000.6,N
1632365495.6,286047002.7,N
1632365515.4,286047002.0,N
1632365535.3,286047001.6,N
1632365555.1,286047001.5,N
1632365575.9,286047001.9,N
1632365595.7,286047001.5,N
1632365615.5,286047002.5,N
1632365635.4,286047001.8,N
1632365655.2,286047004.2,N
1632365675.0,286047003.9,N
1632365676.0,286047003.9,N
1632365695.8,286047003.5,N
1632365715.6,286047003.1,N
1632365735.5,286047001.4,N
1632365755.3,286047001.5,N
1632365775.1,286047001.6,N
1632365795.9,286047001.8,N
1632365815.7,286047002.7,N
1632365835.6,286046999.7,N
1632365855.4,286047002.4,N
1632365875.2,286047000.6,N
1632365895.1,286047002.2,N
1632365896.0,286047002.2,N
1632365915.8,286047001.1,N
1632365935.6,286047000.9,N
1632365955.5,286047000.4,N
1632365975.3,286047000.3,N
1632365995.2,286046999.7,N
